ATLAS 5 CENTAUR DEB, 44666

Orbit data source: Space-Track

ATLAS 5 CENTAUR DEB, 44666 is space debris in HEO originally from a launch on Wed, 17 Oct 2018 UTC launched from the Air Force Eastern Test Range (AFETR). Debris objects in space refer to the collection of defunct objects orbiting the Earth. Examples of debris include non-operational satellites, rocket bodies, and fragments generated from explosions, collisions, or faulty payload assembly.

Loading next visibility...
Identifier
44666, 2018-079AC
Orbit
HEO
Last TLE update
3 days ago
Origin
Flag of USUnited Launch Alliance/Lockheed Martin (US)
Manufacturer
ULA Decatur
Mission
Spacecraft
Bus & Motor
Unknown
Mass
Unknown
Launch date (UTC)
2018-10-17 (7 years ago)
Launch vehicle
Unknown
Launch site
Air Force Eastern Test Range (AFETR)
Object type
Payload
Rocket body
Debris
Shape & HBR
Unknown
Radar Cross Section
RCS unknown

Expand to show TLE details & history

TLE from 3 days ago
0 ATLAS 5 CENTAUR DEB
1 44666U 18079AC  25178.77949677 -.00000139  00000-0  00000-0 0  9994
2 44666  12.6577  62.4704 4450472 272.1772  39.1250  1.90669241 42265
Epoch: 2025-06-27T18:42Z
TLE epoch observation values (Epoch: 2025-06-27T18:42:28.52Z)
Latitude
0.00007°
Longitude
-134.29532°
Altitude
15,315.538 km
Speed
4.716 km/s
True Right ascension
04h 09m 48s
True Declination
0° 00' 00"
Sunlit
Object was in daylight at epoch
Visualization orbit readout
Latitude
9.15658°
Longitude
-0.33873°
Altitude
26,827.482 km
Speed
3.082 km/s
Apparent Right ascension
12h 32m 00s
Apparent Declination
2° 11' 58"
Sunlit
Object is in daylight
Visualization observer readout
Local Sidereal Time
17:44:09
Azimuth
263.958° W
Elevation
10.573°
Doppler factor
1
Orbital elements
Apogee altitude
33,322.408 km
Perigee altitude
8,868.374 km
Semi-major axis
27,473.528 km
Eccentricity
0.44505
Inclination
12.6577°
RAAN
62.4704°
Arg. of periapsis
272.1772°
True anomaly
Unknown
Mean anomaly
39.125°
Eccentric anomaly
Unknown
Mean motion
0.47662 °/min
Orbital period
755.32 mins
BSTAR
0
Loading maneuver chart data...
Loading SW <> Apogee altitude chart data...

ATLAS 5 CENTAUR DEB Visibility forecast

Observer location: undefined°, undefined°

Span
Click to sort rows by Start time (UTC) header in descending order
Start Az.
Max El. time (UTC)
Max El. Az.
Max El.
End time (UTC)
End Az.
25 mins2025-07-01 06:06:25.085Z263.939° W2025-07-01 06:06:25.085Z263.939° W10.39°2025-07-01 06:31:25.085Z261.888° W
144 mins2025-07-01 07:02:25.085Z257.829° W2025-07-01 08:52:25.085Z202.91° SW15.86°2025-07-01 09:26:25.085Z158.131° S
|